Location: Boone Canyon
(38.3180°N, 119.2504°W)
Time: 17:40:23
(UTC+00:00)

Cosmos 1777 Rocket - Pass Details

Date: 18 September 2020
Orbit: 759 x 775 km, 74.0° (Epoch: 19 October)

Event Time Altitude Azimuth Distance (km) Brightness Sun altitude
Rises 12:03:43 0° 333° (NNW) 3,236 7.2 -19.7°
Reaches altitude 10° 12:06:14 10° 325° (NW) 2,303 6.3 -19.2°
Maximum altitude 12:11:02 38° 259° (WSW) 1,142 4.4 -18.3°
Drops below altitude 10° 12:15:48 10° 191° (SSW) 2,282 6.2 -17.4°
Sets 12:18:17 0° 184° (S) 3,202 7.0 -17.0°
